Orr, MN

7:18 AM CDT on June 25, 2017 (GMT -0500)
Orr Regional

Weather History for KORB - October, 2012

Change the Weather History Date:

Tuesday, October 9, 2012

  Actual Average Record
Temperature  
Mean Temperature 34 °F -  
Max Temperature 39 °F 53 °F 77 °F (2010)
Min Temperature 30 °F 33 °F 24 °F (2000)
Degree Days  
Heating Degree Days 30    
Moisture  
Dew Point 33 °F    
Average Humidity 86    
Maximum Humidity 93    
Minimum Humidity 70    
Precipitation  
Precipitation 0.01 in - - ()
Sea Level Pressure  
Sea Level Pressure 29.65 in    
Wind  
Wind Speed 6 mph (West)    
Max Wind Speed 18 mph    
Max Gust Speed 24 mph    
Visibility 10 miles    
Events Rain , Snow    
Averages and records for this station are not official NWS values.
T = Trace of Precipitation, MM = Missing Value Source: NWS Daily Summary

Daily Weather History Graph

Daily Weather History Graph

Search for Another Location

Airport or City:

Trip Planner

Search our weather history database for the weather conditions in past years. The results will help you decide how hot, cold, wet, or windy it might be!

Date:

Astronomy

Oct. 09, 2012 Rise Set
Actual Time 7:22 AM CDT 6:33 PM CDT
Civil Twilight 6:51 AM CDT 7:04 PM CDT
Nautical Twilight 6:15 AM CDT 7:40 PM CDT
Astronomical Twilight 5:39 AM CDT 8:16 PM CDT
Moon 12:33 AM CDT (10/9) 3:24 PM CDT (10/9)
Length of Visible Light 12h 12m
Length of Day
11h 10m
Last Quarter, 36% of the Moon is Illuminated
Oct 9
Last Quarter
Oct 15
New
Oct 21
First Quarter
Oct 29
Full
Nov 6
Last Quarter

Hourly Weather History & Observations

Time (CDT) Temp. Windchill Dew Point Humidity Pressure Visibility Wind Dir Wind Speed Gust Speed Precip Events Conditions
12:13 AM 37.4 °F 34.9 °F 35.6 °F 93% 29.56 in 10.0 mi West 3.5 mph - N/A   Overcast
12:33 AM 37.4 °F 34.9 °F 35.6 °F 93% 29.56 in 10.0 mi SW 3.5 mph - N/A   Overcast
12:53 AM 37.4 °F - 35.6 °F 93% 29.56 in 10.0 mi Calm Calm - N/A   Overcast
1:13 AM 37.4 °F - 35.6 °F 93% 29.55 in 10.0 mi Calm Calm - N/A   Overcast
1:34 AM 37.4 °F - 35.6 °F 93% 29.56 in 7.0 mi Calm Calm - N/A   Mostly Cloudy
1:53 AM 37.4 °F - 35.6 °F 93% 29.55 in 7.0 mi Calm Calm - N/A   Mostly Cloudy
2:13 AM 37.4 °F - 35.6 °F 93% 29.56 in 10.0 mi Calm Calm - N/A   Scattered Clouds
2:33 AM 39.2 °F 37.0 °F 37.4 °F 93% 29.55 in 10.0 mi SW 3.5 mph - N/A   Mostly Cloudy
2:53 AM 39.2 °F 37.0 °F 37.4 °F 93% 29.56 in 10.0 mi SW 3.5 mph - N/A   Mostly Cloudy
3:13 AM 39.2 °F 35.9 °F 37.4 °F 93% 29.55 in 10.0 mi WSW 4.6 mph - N/A   Mostly Cloudy
3:33 AM 39.2 °F 34.2 °F 37.4 °F 93% 29.55 in 10.0 mi West 6.9 mph - N/A   Overcast
3:53 AM 39.2 °F 35.9 °F 35.6 °F 87% 29.55 in 10.0 mi WSW 4.6 mph - N/A   Overcast
4:13 AM 39.2 °F 37.0 °F 35.6 °F 87% 29.56 in 10.0 mi WSW 3.5 mph - N/A   Mostly Cloudy
4:33 AM 39.2 °F 35.9 °F 35.6 °F 87% 29.56 in 10.0 mi WSW 4.6 mph - N/A   Mostly Cloudy
4:53 AM 39.2 °F 35.9 °F 35.6 °F 87% 29.56 in 10.0 mi SW 4.6 mph - N/A   Overcast
5:13 AM 39.2 °F 35.9 °F 35.6 °F 87% 29.56 in 10.0 mi WSW 4.6 mph - N/A   Overcast
5:33 AM 39.2 °F 37.0 °F 35.6 °F 87% 29.55 in 10.0 mi SW 3.5 mph - N/A   Overcast
5:53 AM 37.4 °F - 35.6 °F 93% 29.55 in 10.0 mi Calm Calm - N/A   Overcast
6:13 AM 37.4 °F 34.9 °F 35.6 °F 93% 29.56 in 10.0 mi SW 3.5 mph - N/A   Overcast
6:33 AM 37.4 °F 34.9 °F 35.6 °F 93% 29.56 in 10.0 mi SW 3.5 mph - N/A   Mostly Cloudy
6:53 AM 37.4 °F 34.9 °F 33.8 °F 87% 29.57 in 10.0 mi WSW 3.5 mph - N/A   Scattered Clouds
7:13 AM 37.4 °F 32.8 °F 33.8 °F 87% 29.57 in 10.0 mi West 5.8 mph - N/A   Mostly Cloudy
7:33 AM 37.4 °F - 33.8 °F 87% 29.57 in 10.0 mi Calm Calm - N/A   Overcast
7:53 AM 37.4 °F 33.8 °F 33.8 °F 87% 29.57 in 10.0 mi SW 4.6 mph - N/A   Overcast
8:13 AM 37.4 °F 33.8 °F 33.8 °F 87% 29.57 in 10.0 mi SW 4.6 mph - N/A   Mostly Cloudy
8:33 AM 37.4 °F 32.8 °F 33.8 °F 87% 29.58 in 10.0 mi WSW 5.8 mph - N/A   Mostly Cloudy
8:53 AM 37.4 °F 32.8 °F 33.8 °F 87% 29.58 in 10.0 mi WSW 5.8 mph - N/A   Mostly Cloudy
9:13 AM 37.4 °F 32.8 °F 33.8 °F 87% 29.58 in 10.0 mi WSW 5.8 mph - N/A   Light Drizzle
9:33 AM 37.4 °F 30.8 °F 33.8 °F 87% 29.59 in 10.0 mi WSW 9.2 mph - N/A   Light Drizzle
9:54 AM 37.4 °F 31.4 °F 33.8 °F 87% 29.59 in 10.0 mi WSW 8.1 mph - N/A   Mostly Cloudy
10:13 AM 37.4 °F 31.4 °F 33.8 °F 87% 29.59 in 10.0 mi WSW 8.1 mph - N/A   Mostly Cloudy
10:34 AM 39.2 °F 33.6 °F 33.8 °F 81% 29.59 in 10.0 mi WSW 8.1 mph - N/A   Mostly Cloudy
10:53 AM 39.2 °F 32.5 °F 33.8 °F 81% 29.60 in 10.0 mi WSW 10.4 mph 17.3 mph N/A   Overcast
11:13 AM 39.2 °F 32.5 °F 32.0 °F 75% 29.60 in 10.0 mi WSW 10.4 mph - N/A   Mostly Cloudy
11:54 AM 37.4 °F 30.3 °F 33.8 °F 87% 29.61 in 5.0 mi West 10.4 mph - N/A   Drizzle
12:13 PM 37.4 °F 32.8 °F 33.8 °F 87% 29.61 in 10.0 mi West 5.8 mph - N/A   Light Drizzle
12:33 PM 37.4 °F 30.3 °F 33.8 °F 87% 29.62 in 7.0 mi WNW 10.4 mph - 0.01 in   Drizzle
12:53 PM 37.4 °F 28.9 °F 35.6 °F 93% 29.62 in 10.0 mi NW 13.8 mph - 0.01 in Rain Light Rain
1:13 PM 37.4 °F 29.3 °F 33.8 °F 87% 29.63 in 10.0 mi WNW 12.7 mph 18.4 mph N/A Rain Light Rain
1:33 PM 39.2 °F 32.5 °F 33.8 °F 81% 29.63 in 10.0 mi WNW 10.4 mph 18.4 mph N/A Rain Rain
1:53 PM 39.2 °F 32.0 °F 33.8 °F 81% 29.63 in 10.0 mi WNW 11.5 mph 17.3 mph N/A   Mostly Cloudy
2:13 PM 37.4 °F 28.5 °F 33.8 °F 87% 29.64 in 10.0 mi WNW 15.0 mph - N/A Rain Light Rain
2:33 PM 39.2 °F 30.5 °F 33.8 °F 81% 29.64 in 10.0 mi WNW 16.1 mph 20.7 mph N/A   Scattered Clouds
2:53 PM 39.2 °F 31.6 °F 32.0 °F 75% 29.65 in 10.0 mi WNW 12.7 mph 21.9 mph N/A   Mostly Cloudy
3:13 PM 39.2 °F 30.2 °F 30.2 °F 70% 29.66 in 10.0 mi NW 17.3 mph 24.2 mph N/A   Mostly Cloudy
3:33 PM 39.2 °F 32.5 °F 32.0 °F 75% 29.66 in 10.0 mi NW 10.4 mph 19.6 mph N/A   Scattered Clouds
3:53 PM 39.2 °F 32.0 °F 32.0 °F 75% 29.67 in 10.0 mi NW 11.5 mph 17.3 mph N/A   Scattered Clouds
4:13 PM 39.2 °F 29.8 °F 32.0 °F 75% 29.69 in 10.0 mi WNW 18.4 mph 24.2 mph N/A   Overcast
4:33 PM 37.4 °F 28.9 °F 30.2 °F 75% 29.70 in 10.0 mi WNW 13.8 mph 21.9 mph N/A   Mostly Cloudy
4:53 PM 37.4 °F 30.3 °F 30.2 °F 75% 29.70 in 10.0 mi WNW 10.4 mph - N/A   Overcast
5:13 PM 37.4 °F 29.8 °F 30.2 °F 75% 29.71 in 10.0 mi WNW 11.5 mph 18.4 mph N/A   Overcast
5:33 PM 33.8 °F 26.4 °F 30.2 °F 87% 29.72 in 10.0 mi NW 9.2 mph - N/A Rain Light Rain
5:53 PM 35.6 °F 28.0 °F 30.2 °F 81% 29.74 in 10.0 mi NNW 10.4 mph - N/A   Mostly Cloudy
6:13 PM 33.8 °F 25.3 °F 30.2 °F 87% 29.75 in 4.0 mi NW 11.5 mph 19.6 mph N/A   Overcast
6:33 PM 33.8 °F 26.4 °F 28.4 °F 81% 29.76 in 10.0 mi NW 9.2 mph 20.7 mph N/A   Overcast
6:53 PM 33.8 °F 27.0 °F 28.4 °F 81% 29.77 in 7.0 mi NNW 8.1 mph - N/A Snow Light Snow
7:13 PM 33.8 °F 30.8 °F 30.2 °F 87% 29.78 in 7.0 mi NW 3.5 mph - N/A Snow Light Snow
7:33 PM 32.0 °F 24.8 °F 30.2 °F 93% 29.79 in 1.8 mi NW 8.1 mph - N/A Snow Light Snow
7:53 PM 33.8 °F 27.7 °F 30.2 °F 87% 29.80 in 10.0 mi NW 6.9 mph - N/A   Overcast
8:13 PM 32.0 °F 24.8 °F 30.2 °F 93% 29.81 in 10.0 mi NW 8.1 mph - N/A   Overcast
8:33 PM 32.0 °F 24.2 °F 28.4 °F 87% 29.81 in 10.0 mi NW 9.2 mph 17.3 mph N/A   Overcast
8:53 PM 32.0 °F 25.6 °F 28.4 °F 87% 29.82 in 10.0 mi NW 6.9 mph - N/A   Overcast
9:13 PM 32.0 °F 26.4 °F 28.4 °F 87% 29.82 in 10.0 mi WNW 5.8 mph - N/A   Mostly Cloudy
9:33 PM 32.0 °F 25.6 °F 28.4 °F 87% 29.82 in 7.0 mi WNW 6.9 mph - N/A   Overcast
9:53 PM 32.0 °F 25.6 °F 28.4 °F 87% 29.83 in 10.0 mi WNW 6.9 mph - N/A   Overcast
10:13 PM 30.2 °F 22.6 °F 28.4 °F 93% 29.83 in 10.0 mi WNW 8.1 mph - N/A   Mostly Cloudy
10:33 PM 30.2 °F 24.3 °F 28.4 °F 93% 29.84 in 10.0 mi West 5.8 mph - N/A   Overcast
10:53 PM 30.2 °F 24.3 °F 28.4 °F 93% 29.84 in 10.0 mi WNW 5.8 mph - N/A   Overcast
11:14 PM 30.2 °F 23.4 °F 28.4 °F 93% 29.84 in 10.0 mi WNW 6.9 mph - N/A   Mostly Cloudy
11:33 PM 30.2 °F 24.3 °F 26.6 °F 86% 29.84 in 10.0 mi West 5.8 mph - N/A   Scattered Clouds
11:53 PM 30.2 °F 24.3 °F 26.6 °F 86% 29.84 in 10.0 mi West 5.8 mph - N/A   Mostly Cloudy